Location: Neuvy Saint Sepulchre
(46.5953°N, 1.8122°E)
Time: 21:47:34
(UTC+02:00)

BlueWalker 3 - Pass Details

Date: 02 March 2024
Orbit: 485 x 495 km, 53.2° (Epoch: 21 April)

Event Time Altitude Azimuth Distance (km) Brightness Sun altitude
Rises 20:05:13 0° 300° (WNW) 2,563 6.8 -15.3°
Reaches altitude 10° 20:07:24 10° 301° (WNW) 1,677 5.6 -15.7°
Maximum altitude 20:11:11 86° 28° (NNE) 492 1.8 -16.3°
Enters shadow 20:12:38 36° 118° (ESE) 785 2.4 -16.6°
